Regional Weather Roundup
Issued by NWS

Home | Current Version | Previous Version | Graphics & Text | Print | Product List | Glossary On
Versions: 1 2 3 4 5 6 7 8 9 10 11 12 13 14 15 16 17 18 19 20 21 22 23 24 25 26 27 28 29 30 31 32 33 34 35 36 37 38 39 40 41 42 43 44 45 46 47 48 49 50
000
ASUS43 KIND 021209
RWRIN

WEATHER ROUNDUP FOR INDIANA
NATIONAL WEATHER SERVICE INDIANAPOLIS IN
800 AM EDT TUE JUN 02 2015

NOTE: "FAIR" INDICATES FEW OR NO CLOUDS BELOW 12,000 FEET WITH NO
SIGNIFICANT WEATHER AND/OR OBSTRUCTIONS TO VISIBILITY.

* - STATION DOES NOT REPORT WEATHER SUCH AS PRECIPITATION OR FOG.

+ - STATION NOT QUALITY CONTROLLED BY THE NATIONAL WEATHER SERVICE.
    USE DATA WITH CAUTION...ESPECIALLY DEWPOINT AND RELATIVE
    HUMIDITY OBSERVATIONS.

INZ001>003-010>013-019-020-021300-
NORTHWEST INDIANA

CITY           SKY/WX    TMP DP  RH WIND       PRES   REMARKS
KNOX *+        SUNNY     48  48 100 CALM      30.20R
LA PORTE +     SUNNY     53  53 100 CALM      30.21S
6HR MIN TEMP:  44; 6HR MAX TEMP:  53;

MICHIGAN CITY+ SUNNY     50  50 100 CALM      30.22R FOG
MONTICELLO +   SUNNY     51  50  95 CALM      30.18S
6HR MIN TEMP:  44; 6HR MAX TEMP:  51;

RENSSELAER +   SUNNY     50  50 100 CALM      30.20R
VALPARAISO     SUNNY     51  47  86 NE3       30.21R
6HR MIN TEMP:  43; 6HR MAX TEMP:  51;


$$

LMZ046-743>745-021300-
SOUTHERN LAKE MICHIGAN

STATION/POSITION TIME  TEMP    WIND        PRES    WAVE
                       AIR SEA DIR/SP/G            HT
                 (UTC) (F)     (DEG/KT/KT) (MB)    (FT)
BURNS HARBOR     1200          190/  5/  7 1023.4S
MICHIGAN CITY    1200   52     140/  3/  4   N/A
5NW MICH CITY    1200   53 55  180/  6/  8   N/A     1

$$

INZ004-005-014>016-021>024-021300-
NORTH CENTRAL INDIANA

CITY           SKY/WX    TMP DP  RH WIND       PRES   REMARKS
ELKHART        SUNNY     50  50 100 CALM      30.22R
GOSHEN         SUNNY     50  47  89 NE3       30.20R
6HR MIN TEMP:  43; 6HR MAX TEMP:  50;

LOGANSPORT +   SUNNY     50  46  87 N6        30.19S
PERU/GRISSOM   SUNNY     51  49  92 NE7       30.17R
6HR MIN TEMP:  44; 6HR MAX TEMP:  51;

ROCHESTER +    SUNNY     52  52 100 NE3       30.20R FOG
SOUTH BEND     SUNNY     53  48  83 CALM      30.22R
6HR MIN TEMP:  44; 6HR MAX TEMP:  53;

WARSAW +       SUNNY     48  48 100 CALM      30.20R FOG

$$

INZ006>009-017-018-025>027-021300-
NORTHEAST INDIANA

CITY           SKY/WX    TMP DP  RH WIND       PRES   REMARKS
ANGOLA *+      SUNNY     50  34  53 NE6       30.20R
AUBURN +       SUNNY     50  45  81 NE6       30.20S
FORT WAYNE     MOSUNNY   52  44  74 NE8       30.19R
6HR MIN TEMP:  44; 6HR MAX TEMP:  52;

HUNTINGTON +   SUNNY     49  46  90 NE3       30.18R
6HR MIN TEMP:  44; 6HR MAX TEMP:  49;


$$

INZ028-029-035-036-043>045-051>053-021300-
WEST CENTRAL INDIANA

CITY           SKY/WX    TMP DP  RH WIND       PRES   REMARKS
CRAWFORDSVL +  SUNNY     50  45  81 NE6       30.17R
6HR MIN TEMP:  46; 6HR MAX TEMP:  52;

GREENCASTLE +  SUNNY     52  45  76 E5        30.17R
LAFAYETTE      SUNNY     52  49  89 N3        30.18R
6HR MIN TEMP:  46; 6HR MAX TEMP:  52;

TERRE HAUTE    CLOUDY    54  50  86 NE9       30.16R
6HR MIN TEMP:  49; 6HR MAX TEMP:  56;


$$

INZ030>032-037>040-046>048-054>057-064-065-021300-
CENTRAL INDIANA

CITY           SKY/WX    TMP DP  RH WIND       PRES   REMARKS
CP ATTERBURY + CLOUDY    52  46  82 NE3       30.16S
FISHERS *+     SUNNY     50  50 100 E3        30.17R
FRANKFORT +    SUNNY     52  52 100 N6        30.19R
6HR MIN TEMP:  47; 6HR MAX TEMP:  52;

GREENWOOD *+   SUNNY     52  46  82 NE6       30.17R
INDIANAPOLIS   MOSUNNY   52  46  80 NE8       30.15R
6HR MIN TEMP:  49; 6HR MAX TEMP:  53;

-EAGLE CREEK   SUNNY     52  47  83 E9        30.16R
6HR MIN TEMP:  48; 6HR MAX TEMP:  53;

KOKOMO *+      SUNNY     52  48  87 NE6       30.18R
6HR MIN TEMP:  46; 6HR MAX TEMP:  52;

MARION +       SUNNY     49  47  92 NE5       30.19R
MT COMFORT *+  SUNNY     52 N/A N/A NE5       30.17R
SHELBYVILLE    SUNNY     54  48  80 NE7       30.16R
6HR MIN TEMP:  49; 6HR MAX TEMP:  54;

ZIONSVILLE +   SUNNY     52  47  81 NE7       30.18R
6HR MIN TEMP:  48; 6HR MAX TEMP:  52;


$$

INZ033-034-041-042-049-050-058-059-021300-
EAST CENTRAL INDIANA

CITY           SKY/WX    TMP DP  RH WIND       PRES   REMARKS
MUNCIE         SUNNY     51  48  89 NE8       30.17R FOG
6HR MIN TEMP:  46; 6HR MAX TEMP:  51;


$$

INZ060-061-067>069-081>083-085>088-021300-
SOUTHWEST INDIANA

CITY           SKY/WX    TMP DP  RH WIND       PRES   REMARKS
EVANSVILLE     CLOUDY    58  55  90 NE8       30.14R FOG
6HR MIN TEMP:  58; 6HR MAX TEMP:  59; 6HR PCP: TRACE;

HUNTINGBURG *+ CLOUDY    55  52  88 NE8       30.14R
6HR MIN TEMP:  55; 6HR MAX TEMP:  57;

WASHINGTON +   CLOUDY    55  50  82 NE3       30.14S
6HR MIN TEMP:  55; 6HR MAX TEMP:  58;


$$

INZ062-063-066-070>080-084-089>092-021300-
SOUTH CENTRAL AND SOUTHEAST INDIANA

CITY           SKY/WX    TMP DP  RH WIND       PRES   REMARKS
BLOOMINGTON    CLOUDY    54  50  86 E6        30.14R
6HR MIN TEMP:  54; 6HR MAX TEMP:  55;

MADISON *+     CLOUDY    54  48  82 NE3       30.15S
NORTH VERNON + CLOUDY    54  54 100 N5        30.15R
SEYMOUR +      CLOUDY    55  50  82 NE7       30.14R

$$




USA.gov is the U.S. government's official web portal to all federal, state and local government web resources and services.